Search for airport 
image banner adimage banner adimage banner ad
image banner ad

SCVE - Lago Verde

Located in Lago Verde, Chile

ICAO - SCVE, IATA -

Data provided by Airmate  

General information

Coordinates: S44°13'46" W71°51'7"
Elevation is 1020 feet MSL.
Magnetic variation is 9° East
View others Airports in Aisén del General Carlos Ibañez

Operational data

Special qualification required
Current time UTC:
Current local time:
Weather at : SCAP - Alto Palena ( 69 km )
METAR: SCAP 060100Z AUTO VRB01KT 9999 ////// 01/M00 Q1029
View NOTAMs / SUP AIP / TFR affecting this airport [VIEW]
Communications frequencies: [VIEW]

Runways:

RWY identifierQFULength (ft)Width (ft)SurfaceLDA (ft)
0449°296572DIRT
22229°296572DIRT

Airport contact information

Address: Lago Verde Chile

Satellite view of SCVE